Location: Bannatyne
(13.0833°N, 59.5333°W)
Time: 18:05:48
(UTC+00:00)

Vanguard 3 - Pass Details

Date: 30 January 2020
Orbit: 508 x 3263 km, 33.3° (Epoch: 22 February)

Event Time Altitude Azimuth Distance (km) Brightness Sun altitude
Rises 20:17:17 0° 269° (W) 6,180 12.8 22.0°
Reaches altitude 10° 20:21:18 10° 276° (W) 5,470 12.5 21.1°
Maximum altitude 20:38:06 45° 344° (NNW) 3,981 10.8 17.4°
Drops below altitude 10° 20:56:21 10° 53° (NE) 5,860 11.0 13.3°
Sets 21:00:55 0° 60° (ENE) 6,628 11.1 12.3°
